Regional Weather Roundup
Issued by NWS

Home | Current Version | Previous Version | Graphics & Text | Print | Product List | Glossary On
Versions: 1 2 3 4 5 6 7 8 9 10 11 12 13 14 15 16 17 18 19 20 21 22 23 24 25 26 27 28 29 30 31 32 33 34 35 36 37 38 39 40 41 42 43 44 45 46 47 48 49 50
000
ASUS43 KIND 241859
RWRIN

WEATHER ROUNDUP FOR INDIANA
NATIONAL WEATHER SERVICE INDIANAPOLIS IN
200 PM EST MON NOV 24 2014

NOTE: "FAIR" INDICATES FEW OR NO CLOUDS BELOW 12,000 FEET WITH NO
SIGNIFICANT WEATHER AND/OR OBSTRUCTIONS TO VISIBILITY.

* - STATION DOES NOT REPORT WEATHER SUCH AS PRECIPITATION OR FOG.

+ - STATION NOT QUALITY CONTROLLED BY THE NATIONAL WEATHER SERVICE.
    USE DATA WITH CAUTION...ESPECIALLY DEWPOINT AND RELATIVE
    HUMIDITY OBSERVATIONS.

INZ001>003-010>013-019-020-242000-
NORTHWEST INDIANA

CITY           SKY/WX    TMP DP  RH WIND       PRES   REMARKS
GARY /AIRPORT/ LGT SNOW  34  32  93 W29G44    29.41R WCI  20
VALPARAISO     NOT AVBL

$$

LMZ046-743>745-242000-
SOUTHERN LAKE MICHIGAN

STATION/POSITION TIME  TEMP WIND        PRES
                       AIR  DIR/SP/G
                 (UTC) (F)  (DEG/KT/KT) (MB)
MICHIGAN CITY    1800   33  200/ 30/ 38   N/A

$$

INZ004-005-014>016-021>024-242000-
NORTH CENTRAL INDIANA

CITY           SKY/WX    TMP DP  RH WIND       PRES   REMARKS
GOSHEN         CLOUDY    44  30  57 SW33G48   29.40R
PERU/GRISSOM   LGT RAIN  37  37 100 W31G38    29.50R
SOUTH BEND     CLOUDY    35  32  88 SW29G46   29.38R WCI  22

$$

INZ006>009-017-018-025>027-242000-
NORTHEAST INDIANA

CITY           SKY/WX    TMP DP  RH WIND       PRES   REMARKS
ANGOLA *+      CLOUDY    37  30  75 W26       29.35R
FORT WAYNE     CLOUDY    38  32  79 SW32G49   29.46R

$$

INZ028-029-035-036-043>045-051>053-242000-
WEST CENTRAL INDIANA

CITY           SKY/WX    TMP DP  RH WIND       PRES   REMARKS
GREENCASTLE +  CLOUDY    36  32  87 SW13G21   29.61R
LAFAYETTE      CLOUDY    35  30  82 SW18G35   29.55R WCI  24
TERRE HAUTE    LGT RAIN  39  31  72 SW20G31   29.64R

$$

INZ030>032-037>040-046>048-054>057-064-065-242000-
CENTRAL INDIANA

CITY           SKY/WX    TMP DP  RH WIND       PRES   REMARKS
ANDERSON       DRIZZLE   39  32  75 SW17G35   29.56R
COLUMBUS       CLOUDY    41  37  87 MISG      29.64R
INDIANAPOLIS   CLOUDY    38  33  82 SW31G41   29.57R
-EAGLE CREEK   CLOUDY    39  32  76 SW15G26   29.58R
KOKOMO *+      CLOUDY    37  30  75 W33G40    29.54R
MT COMFORT *+  CLOUDY    39  30  70 SW24G31   29.59R
SHELBYVILLE    CLOUDY    42  34  73 SW21G31   29.61R

$$

INZ033-034-041-042-049-050-058-059-242000-
EAST CENTRAL INDIANA

CITY           SKY/WX    TMP DP  RH WIND       PRES   REMARKS
MUNCIE         CLOUDY    40  32  73 W24G32    29.53R

$$

INZ060-061-067>069-081>083-085>088-242000-
SOUTHWEST INDIANA

CITY           SKY/WX    TMP DP  RH WIND       PRES   REMARKS
EVANSVILLE     CLOUDY    47  35  63 SW17G31   29.73R
HUNTINGBURG *+ CLOUDY    45  34  65 SW18      29.72R

$$

INZ062-063-066-070>080-084-089>092-242000-
SOUTH CENTRAL AND SOUTHEAST INDIANA

CITY           SKY/WX    TMP DP  RH WIND       PRES   REMARKS
BLOOMINGTON    CLOUDY    41  34  76 W20G36    29.64R

$$




USA.gov is the U.S. government's official web portal to all federal, state and local government web resources and services.